Location: ???? ?????????
(31.1304°N, 31.7111°E)
Time: 11:05:04
(UTC+00:00)

Vanguard 2 Rocket - All Passes

Search period start: 01 March 2021 00:00
Search period end: 11 March 2021 00:00
Orbit: 554 x 3325 km, 32.9° (Epoch: 28 February)

Date Brightness Start Highest point End Pass type
(mag) Time Alt. Az. Time Alt. Az. Time Alt. Az.
01 Mar - 01:50:16 10° SW 01:56:18 60° SSE 02:07:02 10° ENE visible
01 Mar - 04:02:20 10° W 04:10:55 83° N 04:26:41 10° E daylight
01 Mar - 06:15:37 10° WNW 06:27:42 87° SSW 06:47:17 10° ESE daylight
01 Mar - 08:30:12 10° WNW 08:45:27 57° SSW 09:05:03 10° SE daylight
01 Mar - 10:48:55 10° W 11:02:41 25° SW 11:16:55 10° S daylight
02 Mar - 00:51:50 10° SSW 00:56:49 39° SE 01:04:49 10° E visible
02 Mar - 03:03:06 10° WSW 03:10:17 88° N 03:23:39 10° E visible
02 Mar - 05:15:55 10° W 05:26:11 86° N 05:44:09 10° E daylight
02 Mar - 07:29:43 10° WNW 07:43:27 67° SSW 08:03:23 10° SE daylight
02 Mar - 09:46:09 10° W 10:00:56 34° SW 10:17:45 10° SSE daylight
02 Mar - 23:54:00 10° S 23:57:41 21° SE 00:02:42 10° E visible
03 Mar - 02:04:06 10° WSW 02:10:08 79° SSE 02:21:06 10° ENE visible
03 Mar - 04:16:29 10° W 04:25:06 82° N 04:40:52 10° E daylight
03 Mar - 06:29:41 10° WNW 06:41:41 77° SSW 07:01:01 10° ESE daylight
03 Mar - 08:44:39 10° W 08:59:04 44° SSW 09:17:27 10° SSE daylight
03 Mar - 11:06:37 10° WSW 11:16:09 16° SW 11:26:00 10° SSW daylight
04 Mar - 01:05:20 10° SW 01:10:25 58° SSE 01:19:03 10° ENE visible
04 Mar - 03:17:13 10° W 03:24:25 81° N 03:37:48 10° E visible
04 Mar - 05:30:01 10° WNW 05:40:16 86° SSW 05:58:09 10° ESE daylight
04 Mar - 07:43:56 10° W 07:57:14 54° SSW 08:16:16 10° SE daylight
04 Mar - 10:01:58 10° W 10:14:28 24° SW 10:28:31 10° S daylight
05 Mar - 00:06:53 10° SSW 00:11:07 35° SSE 00:17:25 10° E visible
05 Mar - 02:18:08 10° W 02:24:10 86° N 02:35:10 10° E visible
05 Mar - 04:30:36 10° W 04:39:13 86° N 04:55:02 10° E daylight
05 Mar - 06:43:49 10° WNW 06:55:35 64° SSW 07:14:20 10° SE daylight
05 Mar - 08:59:37 10° W 09:12:43 32° SW 09:29:04 10° SSE daylight
05 Mar - 23:09:02 10° S 23:12:04 19° SE 23:15:48 10° E night (unlit)
06 Mar - 01:19:12 10° WSW 01:24:19 80° SSE 01:33:08 10° ENE visible
06 Mar - 03:31:22 10° W 03:38:36 81° N 03:51:59 10° E visible
06 Mar - 05:44:06 10° WNW 05:54:15 74° SSW 06:11:50 10° ESE daylight
06 Mar - 07:58:28 10° W 08:11:01 40° SSW 08:28:30 10° SSE daylight
06 Mar - 10:20:08 10° WSW 10:28:14 14° SW 10:36:58 10° SSW daylight
07 Mar - 00:20:25 10° SW 00:24:49 56° SSE 00:31:39 10° E visible
07 Mar - 02:32:16 10° W 02:38:19 79° N 02:49:19 10° E visible
07 Mar - 04:44:41 10° WNW 04:53:18 84° SSW 05:09:00 10° ESE daylight
07 Mar - 06:58:06 10° W 07:09:28 50° SSW 07:27:06 10° SE daylight
07 Mar - 09:15:39 10° W 09:26:30 21° SW 09:39:28 10° S daylight
07 Mar - 23:21:53 10° SW 23:25:37 33° SSE 23:30:35 10° E visible
08 Mar - 01:33:15 10° W 01:38:22 84° N 01:47:14 10° E visible
08 Mar - 03:45:29 10° W 03:52:42 87° N 04:06:08 10° E visible
08 Mar - 05:58:16 10° W 06:08:11 59° SSW 06:25:05 10° SE daylight
08 Mar - 08:13:36 10° W 08:24:52 29° SSW 08:39:53 10° SSE daylight
08 Mar - 22:23:50 10° S 22:26:31 17° SE 22:29:32 10° ESE night (unlit)
09 Mar - 00:34:18 10° WSW 00:38:45 81° SSE 00:45:46 10° ENE visible
09 Mar - 02:46:25 10° W 02:52:28 80° N 03:03:30 10° E visible
09 Mar - 04:58:48 10° WNW 05:07:18 70° SSW 05:22:40 10° ESE daylight
09 Mar - 07:12:44 10° W 07:23:24 36° SSW 07:39:11 10° SSE daylight
09 Mar - 09:34:48 10° WSW 09:40:32 12° SW 09:46:48 10° SSW daylight
09 Mar - 23:35:26 10° SW 23:39:23 56° SSE 23:44:51 10° E visible
10 Mar - 01:47:24 10° W 01:52:31 77° N 02:01:22 10° E visible
10 Mar - 03:59:34 10° WNW 04:06:47 81° SSW 04:20:05 10° ESE daylight
10 Mar - 06:12:37 10° W 06:22:11 45° SSW 06:37:46 10° SE daylight
10 Mar - 08:30:01 10° WSW 08:38:52 18° SW 08:49:49 10° S daylight
10 Mar - 22:36:41 10° SW 22:40:13 32° SSE 22:44:20 10° E night (unlit)
